Location: Newark
(54.0919°N, 2.6681°W)
Time: 21:15:01
(UTC+00:00)

N. Korean satellite - Visible Passes

Search period start: 14 October 2019 00:00
Search period end: 24 October 2019 00:00
Orbit: 455 x 508 km, 97.2° (Epoch: 14 October)

Date Brightness Start Highest point End Pass type
(mag) Time Alt. Az. Time Alt. Az. Time Alt. Az.
14 Oct 8.6 05:45:40 10° NNE 05:48:56 34° E 05:52:14 10° SSE visible
14 Oct 9.6 18:01:34 10° SW 18:04:17 22° W 18:07:01 10° NW visible
15 Oct 9.7 05:20:48 10° NE 05:23:29 20° E 05:26:11 10° SE visible
16 Oct 10.4 04:56:42 10° ENE 04:57:56 11° E 04:59:11 10° ESE visible
17 Oct 7.5 06:03:00 10° NNE 06:06:32 54° E 06:10:04 10° S visible
17 Oct 10.1 18:19:56 10° SW 18:21:57 15° W 18:23:58 10° NW visible
18 Oct 8.9 05:37:56 10° NNE 05:41:07 29° E 05:44:20 10° SSE visible
18 Oct 9.2 17:53:30 10° SSW 17:56:26 26° W 17:59:23 10° NW visible
19 Oct 9.9 05:13:11 10° NE 05:15:38 17° E 05:18:05 10° SE visible
21 Oct 8.0 05:55:13 10° NNE 05:58:42 45° E 06:02:13 10° S visible
21 Oct 9.9 18:11:39 10° SW 18:14:02 17° W 18:16:27 10° NW visible
22 Oct 9.2 05:30:12 10° NE 05:33:16 25° E 05:36:20 10° SSE visible
22 Oct 8.8 17:45:26 10° SSW 17:48:32 31° W 17:51:40 10° NNW visible
23 Oct 10.1 05:05:37 10° NE 05:07:44 15° E 05:09:52 10° SE visible
